Location: La Silve
(44.2414°N, 5.8889°E)
Time: 06:30:48
(UTC+00:00)

USA 238 - Pass Details

Date: 01 December 2020
Orbit: 996 x 1216 km, 63.4° (Epoch: 22 January)

Event Time Altitude Azimuth Distance (km) Brightness Sun altitude
Rises 18:50:44 0° 227° (SW) 3,720 7.2 -30.1°
Reaches altitude 10° 18:53:19 10° 231° (SW) 2,788 6.5 -30.6°
Maximum altitude 18:59:48 63° 312° (NW) 1,158 3.9 -31.7°
Enters shadow 19:00:42 57° 347° (NNW) 1,215 3.9 -31.9°
